GW3496 Weather Reports


time (UTC)temp
C
wind
direction
speed
KPH
gust
KPH
rain 1hr
cm
rain 24hr
cm
rain mn
cm
humidity
%
barometer
mb
20260906130059 21 67 9.7 14.5 0.00 0.74 0.03 80 1013.0
20260906124553 21 13 1.6 14.5 0.00 0.74 0.03 82 1012.7
20260906123054 20 333 1.6 12.9 0.00 0.74 0.03 84 1012.9
20260906121556 20 325 3.2 8.0 0.00 0.74 0.03 85 1012.6
20260906120050 19 45 1.6 12.9 0.00 0.74 0.03 86 1012.1
20260906114607 19 355 3.2 8.0 0.00 0.74 0.03 88 1012.5
20260906113053 18 355 1.6 8.0 0.00 0.74 0.03 89 1012.1
20260906111548 18 279 1.6 9.7 0.00 0.74 0.03 89 1012.0
20260906110049 18 360 4.8 12.9 0.00 0.74 0.03 89 1011.7
20260906104556 18 32 3.2 12.9 0.00 0.74 0.03 90 1011.4
20260906103053 18 326 4.8 9.7 0.00 0.74 0.03 91 1011.4
20260906101552 19 326 1.6 12.9 0.00 0.74 0.03 92 1010.9
20260906100049 19 5 4.8 8.0 0.00 0.74 0.03 92 1010.8
20260906094554 19 355 4.8 8.0 0.00 0.74 0.03 93 1011.1
20260906093054 19 26 3.2 8.0 0.00 0.74 0.03 93 1011.0
20260906091550 20 347 0.0 4.8 0.03 0.74 0.03 94 1010.7
20260906090108 20 13 3.2 6.4 0.03 0.74 0.03 94 1010.4
20260906084556 20 13 3.2 8.0 0.03 0.74 0.03 94 1010.3
20260906083059 20 11 3.2 6.4 0.00 0.71 0.00 94 1010.4
20260906081557 20 360 0.0 0.0 0.00 0.71 0.00 95 1010.2
20260906080050 20 352 1.6 4.8 0.00 0.71 0.00 95 1010.1
20260906074607 21 14 0.0 0.0 0.00 0.71 0.00 95 1009.9
20260906073053 21 355 0.0 4.8 0.00 0.71 0.00 95 1009.9
20260906071550 21 19 3.2 6.4 0.00 0.71 0.00 95 1010.0
20260906070051 21 21 1.6 4.8 0.00 0.71 0.00 95 1010.0
20260906064558 21 30 3.2 4.8 0.00 0.71 0.00 95 1010.1
20260906063055 21 345 0.0 4.8 0.00 0.71 0.00 95 1010.3
20260906061559 21 346 0.0 6.4 0.00 0.71 0.00 95 1010.2
20260906054600 21 348 0.0 0.0 0.00 0.71 0.00 95 1010.2
20260906053101 21 348 0.0 0.0 0.00 0.71 0.00 95 1010.3
20260906051600 21 348 0.0 0.0 0.00 0.71 0.00 95 1010.5
20260906050059 21 348 0.0 0.0 0.00 0.71 0.00 94 1010.2
20260906044556 21 5 0.0 4.8 0.00 0.71 0.00 94 1010.3
20260906043035 22 348 1.6 4.8 0.03 0.71 0.00 94 1010.3
20260906041542 22 316 0.0 3.2 0.03 0.71 0.00 94 1010.2
20260906040042 22 344 3.2 6.4 0.03 0.71 0.00 94 1010.2
20260906034540 22 5 3.2 6.4 0.03 0.71 0.71 94 1010.4
20260906033046 22 24 0.0 0.0 0.00 0.66 0.66 94 1010.4
20260906031539 22 355 0.0 0.0 0.00 0.66 0.66 93 1010.4
20260906030041 22 87 0.0 0.0 0.00 0.66 0.66 93 1010.6
20260906024541 22 360 0.0 4.8 0.00 0.66 0.66 93 1010.2
20260906023043 22 307 1.6 8.0 0.00 0.66 0.66 93 1010.3
20260906021539 22 281 3.2 8.0 0.00 0.66 0.66 93 1010.3
20260906020042 23 288 0.0 4.8 0.00 0.66 0.66 92 1010.1
20260906014539 23 355 0.0 6.4 0.00 0.66 0.66 92 1010.2
20260906013042 23 313 3.2 6.4 0.03 0.66 0.66 92 1009.9
20260906011544 23 290 0.0 0.0 0.03 0.66 0.66 91 1009.5
20260906010048 23 282 1.6 11.3 0.03 0.66 0.66 91 1009.3
20260906004538 23 292 0.0 6.4 0.00 0.66 0.66 91 1009.4
20260906003038 23 292 0.0 0.0 0.00 0.66 0.66 90 1009.4
20260906001538 24 5 0.0 0.0 0.00 0.66 0.66 89 1009.1
20260906000045 24 275 0.0 3.2 0.00 0.66 0.66 89 1009.0
20260905234544 24 348 0.0 6.4 0.03 0.66 0.66 88 1009.1
20260905233043 25 328 1.6 6.4 0.03 0.66 0.66 87 1009.3
20260905231540 25 313 0.0 4.8 0.03 0.66 0.66 86 1009.2
20260905230048 25 281 3.2 8.0 0.03 0.66 0.66 84 1008.8
20260905224558 26 291 1.6 6.4 0.00 0.64 0.64 82 1009.2
20260905223041 26 257 4.8 11.3 0.03 0.64 0.64 80 1009.1
20260905221555 26 242 3.2 6.4 0.03 0.64 0.64 80 1009.2
20260905220043 26 245 4.8 8.0 0.03 0.64 0.64 80 1009.0
20260905214541 26 181 4.8 9.7 0.03 0.64 0.64 80 1008.4
20260905213039 26 217 3.2 8.0 0.03 0.61 0.61 80 1008.8
20260905211539 25 202 4.8 6.4 0.03 0.61 0.61 80 1008.9
20260905210043 25 232 0.0 3.2 0.03 0.61 0.61 82 1008.6
20260905204538 25 186 1.6 9.7 0.05 0.61 0.61 83 1008.9
20260905203056 25 219 4.8 9.7 0.03 0.56 0.56 84 1008.9
20260905201545 24 252 9.7 16.1 0.05 0.56 0.56 86 1008.7
20260905200053 24 218 11.3 16.1 0.05 0.56 0.56 85 1008.8
20260905194538 24 242 9.7 17.7 0.05 0.56 0.56 86 1008.9
20260905193042 24 245 9.7 16.1 0.05 0.56 0.56 87 1009.2
20260905191540 24 245 8.0 12.9 0.05 0.53 0.53 89 1009.3
20260905190042 23 213 6.4 12.9 0.08 0.53 0.53 91 1009.2
20260905184559 23 185 1.6 12.9 0.08 0.48 0.48 93 1009.5
20260905183043 23 250 9.7 16.1 0.10 0.48 0.48 93 1009.7
20260905181601 23 189 6.4 14.5 0.10 0.48 0.48 94 1009.5
20260905180038 22 55 0.0 0.0 0.15 0.46 0.46 93 1009.0
20260905174551 22 23 0.0 8.0 0.18 0.41 0.41 92 1008.9
20260905173042 22 144 1.6 4.8 0.30 0.36 0.36 92 1008.9
20260905171543 22 105 3.2 6.4 0.36 0.36 0.36 92 1009.3
20260905170042 22 144 3.2 8.0 0.28 0.28 0.28 90 1009.6
20260905164545 22 53 0.0 12.9 0.20 0.20 0.20 89 1010.1
20260905163044 24 248 24.1 43.5 0.08 0.08 0.08 83 1011.5
20260905161540 25 304 1.6 12.9 0.00 0.00 0.00 80 1011.0
20260905160107 25 360 8.0 16.1 0.00 0.00 0.00 78 1010.8
20260905154548 26 360 8.0 16.1 0.00 0.00 0.00 77 1010.7
20260905153042 26 33 8.0 19.3 0.00 0.00 0.00 77 1010.4
20260905151540 26 26 4.8 12.9 0.00 0.00 0.00 77 1010.5
20260905150040 26 344 3.2 16.1 0.00 0.00 0.00 77 1010.8
20260905144544 26 15 8.0 16.1 0.00 0.00 0.00 77 1010.8
20260905143044 26 13 8.0 16.1 0.00 0.00 0.00 77 1011.0
20260905141544 26 31 4.8 14.5 0.00 0.00 0.00 77 1010.5
20260905140049 26 344 3.2 14.5 0.00 0.00 0.00 78 1010.4
20260905134543 26 17 6.4 14.5 0.00 0.00 0.00 78 1010.1
20260905133043 25 38 4.8 17.7 0.00 0.00 0.00 80 1009.8
20260905131541 25 50 6.4 16.1 0.00 0.00 0.00 82 1010.3